Time,TemperatureF,DewpointF,PressureIn,WindDirection,WindDirectionDegrees,WindSpeedMPH,WindSpeedGustMPH,Humidity,HourlyPrecipIn,Conditions,Clouds,dailyrainin,SoftwareType,DateUTC
2013-11-02 00:00:00,50.4,31.4,29.29,WNW,295,2.8,3.8,48,-99.99,,,-99.99,WSDL version 426,2013-11-02 05:00:00,
2013-11-02 00:05:00,50.4,31.4,29.29,WNW,288,2.8,4.3,48,-99.99,,,-99.99,WSDL version 426,2013-11-02 05:05:00,
2013-11-02 00:10:00,50.4,31.4,29.29,WNW,296,3.1,4.3,48,-99.99,,,-99.99,WSDL version 426,2013-11-02 05:10:00,
2013-11-02 00:15:00,50.4,31.4,29.29,WNW,284,2.6,4.0,48,-99.99,,,-99.99,WSDL version 426,2013-11-02 05:15:00,
2013-11-02 00:20:00,50.3,31.4,29.29,WNW,287,2.6,3.8,48,-99.99,,,-99.99,WSDL version 426,2013-11-02 05:20:00,
2013-11-02 01:01:00,49.5,32.1,29.32,West,281,4.5,4.5,51,-99.99,,,-99.99,WSDL version 426,2013-11-02 06:01:00,
2013-11-02 01:07:00,49.6,32.2,29.32,WNW,298,4.2,7.2,51,-99.99,,,-99.99,WSDL version 426,2013-11-02 06:07:00,
2013-11-02 01:12:00,49.6,32.1,29.32,WNW,293,3.5,5.8,50,-99.99,,,-99.99,WSDL version 426,2013-11-02 06:12:00,
2013-11-02 01:18:00,49.6,31.8,29.32,WNW,284,3.2,5.8,50,-99.99,,,-99.99,WSDL version 426,2013-11-02 06:18:00,
2013-11-02 01:24:00,49.4,31.5,29.32,West,281,3.9,4.9,50,0.00,,,0.00,WSDL version 426,2013-11-02 06:24:00,
2013-11-02 01:30:00,49.1,31.5,29.32,WNW,283,4.5,6.0,51,-99.99,,,-99.99,WSDL version 426,2013-11-02 06:30:00,
2013-11-02 01:35:00,49.0,31.6,29.32,WNW,289,4.4,6.0,51,-99.99,,,-99.99,WSDL version 426,2013-11-02 06:35:00,
2013-11-02 01:41:00,48.9,32.1,29.32,WNW,293,5.2,6.5,52,0.00,,,0.00,WSDL version 426,2013-11-02 06:41:00,
2013-11-02 01:46:00,48.9,32.1,29.32,WNW,287,5.0,6.5,52,-99.99,,,-99.99,WSDL version 426,2013-11-02 06:46:00,
2013-11-02 01:51:00,48.8,31.9,29.32,WNW,283,4.9,7.8,52,-99.99,,,-99.99,WSDL version 426,2013-11-02 06:51:00,
2013-11-02 01:56:00,48.7,32.4,29.32,WNW,293,5.4,8.1,53,-99.99,,,-99.99,WSDL version 426,2013-11-02 06:56:00,
2013-11-02 02:01:00,48.7,32.4,29.32,WNW,293,5.4,8.1,53,-99.99,,,-99.99,WSDL version 426,2013-11-02 07:01:00,
2013-11-02 02:06:00,48.8,32.6,29.32,WNW,298,5.3,8.5,53,0.00,,,0.00,WSDL version 426,2013-11-02 07:06:00,
2013-11-02 02:11:00,49.0,32.7,29.32,NW,305,7.1,8.7,53,-99.99,,,-99.99,WSDL version 426,2013-11-02 07:11:00,
2013-11-02 02:16:00,49.2,32.8,29.32,WNW,303,6.9,8.7,53,0.00,,,0.00,WSDL version 426,2013-11-02 07:16:00,
2013-11-02 02:21:00,49.3,32.9,29.32,NW,309,6.2,8.7,53,-99.99,,,-99.99,WSDL version 426,2013-11-02 07:21:00,
2013-11-02 02:26:00,49.3,32.4,29.32,WNW,287,5.3,8.5,52,-99.99,,,-99.99,WSDL version 426,2013-11-02 07:26:00,
2013-11-02 02:31:00,49.1,32.2,29.35,West,280,4.6,7.4,52,-99.99,,,-99.99,WSDL version 426,2013-11-02 07:31:00,
2013-11-02 02:36:00,48.8,32.0,29.35,West,280,4.1,7.4,52,-99.99,,,-99.99,WSDL version 426,2013-11-02 07:36:00,
2013-11-02 02:41:00,48.4,31.9,29.35,WNW,284,4.4,6.0,53,-99.99,,,-99.99,WSDL version 426,2013-11-02 07:41:00,
2013-11-02 02:46:00,48.1,32.1,29.32,WNW,289,4.5,6.0,54,-99.99,,,-99.99,WSDL version 426,2013-11-02 07:46:00,
2013-11-02 02:51:00,47.8,32.4,29.32,WNW,289,4.6,6.0,55,-99.99,,,-99.99,WSDL version 426,2013-11-02 07:51:00,
2013-11-02 02:56:00,47.7,32.6,29.32,West,281,4.6,6.7,56,-99.99,,,-99.99,WSDL version 426,2013-11-02 07:56:00,
2013-11-02 03:01:00,47.5,32.6,29.32,WNW,288,4.5,6.7,56,-99.99,,,-99.99,WSDL version 426,2013-11-02 08:01:00,
2013-11-02 03:06:00,47.5,32.4,29.32,NW,309,4.6,6.3,56,-99.99,,,-99.99,WSDL version 426,2013-11-02 08:06:00,
2013-11-02 03:11:00,47.5,32.6,29.32,WNW,286,4.5,6.3,56,-99.99,,,-99.99,WSDL version 426,2013-11-02 08:11:00,
2013-11-02 03:16:00,47.5,32.6,29.32,WNW,295,4.0,6.5,56,-99.99,,,-99.99,WSDL version 426,2013-11-02 08:16:00,
2013-11-02 03:21:00,47.5,32.2,29.32,WNW,284,4.4,6.5,55,-99.99,,,-99.99,WSDL version 426,2013-11-02 08:21:00,
2013-11-02 03:26:00,47.5,32.1,29.32,WNW,302,5.8,8.7,55,-99.99,,,-99.99,WSDL version 426,2013-11-02 08:26:00,
2013-11-02 03:31:00,47.7,31.7,29.32,WNW,298,6.2,8.7,53,0.00,,,0.00,WSDL version 426,2013-11-02 08:31:00,
2013-11-02 03:36:00,48.0,31.3,29.32,NW,307,6.0,9.2,52,-99.99,,,-99.99,WSDL version 426,2013-11-02 08:36:00,
2013-11-02 03:41:00,48.0,30.9,29.32,WNW,298,4.2,9.2,51,-99.99,,,-99.99,WSDL version 426,2013-11-02 08:41:00,
2013-11-02 03:46:00,47.9,30.7,29.35,WNW,284,3.5,6.0,51,-99.99,,,-99.99,WSDL version 426,2013-11-02 08:46:00,
2013-11-02 03:51:00,47.6,30.3,29.35,WNW,284,4.2,6.0,51,-99.99,,,-99.99,WSDL version 426,2013-11-02 08:51:00,
2013-11-02 03:56:00,47.2,30.3,29.35,West,280,3.8,6.0,52,-99.99,,,-99.99,WSDL version 426,2013-11-02 08:56:00,
2013-11-02 04:01:00,46.8,30.4,29.35,West,281,4.2,6.0,53,-99.99,,,-99.99,WSDL version 426,2013-11-02 09:01:00,
2013-11-02 04:06:00,46.7,30.9,29.35,WNW,286,3.5,6.5,54,0.00,,,0.00,WSDL version 426,2013-11-02 09:06:00,
2013-11-02 04:11:00,46.6,30.9,29.35,NW,309,4.2,6.5,54,0.00,,,0.00,WSDL version 426,2013-11-02 09:11:00,
2013-11-02 04:16:00,46.8,30.5,29.35,WNW,299,3.4,5.8,53,-99.99,,,-99.99,WSDL version 426,2013-11-02 09:16:00,
2013-11-02 04:21:00,46.8,30.3,29.35,NW,309,4.4,5.6,52,-99.99,,,-99.99,WSDL version 426,2013-11-02 09:21:00,
2013-11-02 04:26:00,46.8,30.1,29.35,WNW,295,4.6,5.6,52,-99.99,,,-99.99,WSDL version 426,2013-11-02 09:26:00,
2013-11-02 04:31:00,46.7,29.7,29.35,WNW,293,3.2,5.6,51,-99.99,,,-99.99,WSDL version 426,2013-11-02 09:31:00,
2013-11-02 04:36:00,46.5,29.5,29.35,WNW,293,3.4,4.3,52,-99.99,,,-99.99,WSDL version 426,2013-11-02 09:36:00,
2013-11-02 04:41:00,46.2,29.6,29.35,West,276,3.4,4.3,52,-99.99,,,-99.99,WSDL version 426,2013-11-02 09:41:00,
2013-11-02 04:46:00,45.9,29.6,29.35,WNW,283,3.4,4.9,53,-99.99,,,-99.99,WSDL version 426,2013-11-02 09:46:00,
2013-11-02 04:51:00,45.9,29.7,29.35,WNW,293,4.0,5.6,53,-99.99,,,-99.99,WSDL version 426,2013-11-02 09:51:00,
2013-11-02 04:56:00,46.0,29.5,29.35,NW,312,4.1,5.6,52,-99.99,,,-99.99,WSDL version 426,2013-11-02 09:56:00,
2013-11-02 05:01:00,46.3,29.2,29.35,NW,320,4.4,8.5,50,-99.99,,,-99.99,WSDL version 426,2013-11-02 10:01:00,
2013-11-02 05:06:00,46.6,28.8,29.35,NW,311,5.3,8.5,49,-99.99,,,-99.99,WSDL version 426,2013-11-02 10:06:00,
2013-11-02 05:11:00,46.9,28.7,29.35,WNW,288,4.5,8.5,49,-99.99,,,-99.99,WSDL version 426,2013-11-02 10:11:00,
2013-11-02 05:16:00,46.7,28.6,29.35,WNW,293,4.5,6.3,49,-99.99,,,-99.99,WSDL version 426,2013-11-02 10:16:00,
2013-11-02 05:21:00,46.7,28.6,29.35,NW,307,6.8,8.9,49,-99.99,,,-99.99,WSDL version 426,2013-11-02 10:21:00,
2013-11-02 05:26:00,47.0,28.4,29.35,NW,323,6.5,10.7,48,0.00,,,0.00,WSDL version 426,2013-11-02 10:26:00,
2013-11-02 05:31:00,47.2,28.4,29.35,NW,323,5.9,10.7,48,-99.99,,,-99.99,WSDL version 426,2013-11-02 10:31:00,
2013-11-02 05:36:00,47.3,28.1,29.35,WNW,300,6.5,8.7,47,-99.99,,,-99.99,WSDL version 426,2013-11-02 10:36:00,
2013-11-02 05:41:00,47.4,28.2,29.35,NNW,334,6.5,11.0,47,-99.99,,,-99.99,WSDL version 426,2013-11-02 10:41:00,
2013-11-02 05:46:00,47.3,28.1,29.35,NW,325,5.7,11.0,47,-99.99,,,-99.99,WSDL version 426,2013-11-02 10:46:00,
2013-11-02 05:51:00,47.2,28.0,29.35,NW,326,4.9,7.8,47,-99.99,,,-99.99,WSDL version 426,2013-11-02 10:51:00,
2013-11-02 05:56:00,47.0,28.1,29.35,NNW,328,5.8,8.7,48,-99.99,,,-99.99,WSDL version 426,2013-11-02 10:56:00,
2013-11-02 06:01:00,46.8,28.1,29.38,NW,321,5.7,8.7,48,-99.99,,,-99.99,WSDL version 426,2013-11-02 11:01:00,
2013-11-02 06:06:00,46.7,28.1,29.38,NW,305,4.7,8.5,48,-99.99,,,-99.99,WSDL version 426,2013-11-02 11:06:00,
2013-11-02 06:11:00,46.6,28.0,29.38,WNW,299,6.0,6.9,48,-99.99,,,-99.99,WSDL version 426,2013-11-02 11:11:00,
2013-11-02 06:16:00,46.6,28.0,29.38,NW,304,6.4,11.0,48,-99.99,,,-99.99,WSDL version 426,2013-11-02 11:16:00,
2013-11-02 06:21:00,46.5,27.9,29.38,WNW,301,4.3,11.0,48,-99.99,,,-99.99,WSDL version 426,2013-11-02 11:21:00,
2013-11-02 06:26:00,46.3,27.9,29.38,West,274,3.9,7.4,49,-99.99,,,-99.99,WSDL version 426,2013-11-02 11:26:00,
2013-11-02 06:31:00,45.8,27.7,29.38,WNW,288,3.7,5.6,49,-99.99,,,-99.99,WSDL version 426,2013-11-02 11:31:00,
2013-11-02 06:36:00,45.3,27.8,29.38,WNW,288,4.8,6.5,51,-99.99,,,-99.99,WSDL version 426,2013-11-02 11:36:00,
2013-11-02 06:41:00,44.8,28.0,29.38,WNW,286,5.3,6.5,52,-99.99,,,-99.99,WSDL version 426,2013-11-02 11:41:00,
2013-11-02 06:46:00,44.4,28.3,29.38,WNW,287,4.4,6.3,54,-99.99,,,-99.99,WSDL version 426,2013-11-02 11:46:00,
2013-11-02 06:51:00,44.0,28.5,29.38,WNW,283,3.6,6.5,54,-99.99,,,-99.99,WSDL version 426,2013-11-02 11:51:00,
2013-11-02 06:56:00,43.7,28.5,29.38,WNW,287,4.1,6.5,55,-99.99,,,-99.99,WSDL version 426,2013-11-02 11:56:00,
2013-11-02 07:01:00,43.5,29.0,29.41,West,276,4.8,6.3,57,-99.99,,,-99.99,WSDL version 426,2013-11-02 12:01:00,
2013-11-02 07:06:00,43.4,29.2,29.41,West,273,3.6,6.0,57,-99.99,,,-99.99,WSDL version 426,2013-11-02 12:06:00,
2013-11-02 07:11:00,43.1,29.1,29.41,West,278,4.1,7.4,58,-99.99,,,-99.99,WSDL version 426,2013-11-02 12:11:00,
2013-11-02 07:16:00,42.9,29.5,29.41,West,281,5.0,7.4,59,-99.99,,,-99.99,WSDL version 426,2013-11-02 12:16:00,
2013-11-02 07:21:00,42.8,29.9,29.41,West,275,4.2,6.3,60,-99.99,,,-99.99,WSDL version 426,2013-11-02 12:21:00,
2013-11-02 07:26:00,42.6,30.1,29.41,WNW,296,5.0,6.3,61,-99.99,,,-99.99,WSDL version 426,2013-11-02 12:26:00,
2013-11-02 07:31:00,42.6,30.3,29.41,West,276,4.4,6.3,61,-99.99,,,-99.99,WSDL version 426,2013-11-02 12:31:00,
2013-11-02 07:36:00,42.5,30.5,29.41,WNW,296,4.1,6.3,62,-99.99,,,-99.99,WSDL version 426,2013-11-02 12:36:00,
2013-11-02 07:41:00,42.4,30.3,29.41,WNW,283,4.2,6.3,62,-99.99,,,-99.99,WSDL version 426,2013-11-02 12:41:00,
2013-11-02 07:46:00,42.4,30.2,29.44,West,278,4.1,6.3,62,-99.99,,,-99.99,WSDL version 426,2013-11-02 12:46:00,
2013-11-02 07:51:00,42.3,30.0,29.44,West,278,3.5,5.6,61,-99.99,,,-99.99,WSDL version 426,2013-11-02 12:51:00,
2013-11-02 07:56:00,42.1,29.8,29.44,West,260,3.5,4.9,61,-99.99,,,-99.99,WSDL version 426,2013-11-02 12:56:00,
2013-11-02 08:01:00,42.0,29.9,29.44,West,259,3.1,4.9,62,-99.99,,,-99.99,WSDL version 426,2013-11-02 13:01:00,
2013-11-02 08:06:00,41.9,29.8,29.44,West,260,4.0,5.6,62,-99.99,,,-99.99,WSDL version 426,2013-11-02 13:06:00,
2013-11-02 08:11:00,41.9,30.2,29.44,West,281,3.7,5.6,63,-99.99,,,-99.99,WSDL version 426,2013-11-02 13:11:00,
2013-11-02 08:16:00,42.0,30.6,29.44,WNW,283,4.1,6.3,64,-99.99,,,-99.99,WSDL version 426,2013-11-02 13:16:00,
2013-11-02 08:21:00,42.1,30.8,29.44,West,280,4.2,6.3,64,-99.99,,,-99.99,WSDL version 426,2013-11-02 13:21:00,
2013-11-02 08:26:00,42.3,31.0,29.44,West,278,4.0,6.7,64,-99.99,,,-99.99,WSDL version 426,2013-11-02 13:26:00,
2013-11-02 08:31:00,42.5,31.2,29.44,West,278,4.8,6.7,64,-99.99,,,-99.99,WSDL version 426,2013-11-02 13:31:00,
2013-11-02 08:36:00,42.8,31.2,29.44,WNW,293,4.8,6.3,63,-99.99,,,-99.99,WSDL version 426,2013-11-02 13:36:00,
2013-11-02 08:41:00,43.2,31.3,29.44,NW,308,6.6,8.7,62,-99.99,,,-99.99,WSDL version 426,2013-11-02 13:41:00,
2013-11-02 08:46:00,43.8,31.3,29.44,WNW,302,5.7,8.7,61,-99.99,,,-99.99,WSDL version 426,2013-11-02 13:46:00,
2013-11-02 08:51:00,44.4,31.1,29.44,WNW,296,5.5,8.7,58,-99.99,,,-99.99,WSDL version 426,2013-11-02 13:51:00,
2013-11-02 08:56:00,45.0,30.7,29.44,NW,315,6.9,10.7,56,-99.99,,,-99.99,WSDL version 426,2013-11-02 13:56:00,
2013-11-02 09:01:00,45.6,30.4,29.44,NW,304,6.5,10.7,55,-99.99,,,-99.99,WSDL version 426,2013-11-02 14:01:00,
2013-11-02 09:06:00,46.2,29.9,29.44,NNW,330,8.4,10.7,51,-99.99,,,-99.99,WSDL version 426,2013-11-02 14:06:00,
2013-11-02 09:11:00,46.8,29.6,29.44,NW,315,7.2,10.7,50,-99.99,,,-99.99,WSDL version 426,2013-11-02 14:11:00,
2013-11-02 09:16:00,47.4,29.2,29.47,NW,309,7.3,10.7,49,-99.99,,,-99.99,WSDL version 426,2013-11-02 14:16:00,
2013-11-02 09:21:00,47.9,29.0,29.47,NW,321,7.1,15.2,48,-99.99,,,-99.99,WSDL version 426,2013-11-02 14:21:00,
2013-11-02 09:26:00,48.3,28.4,29.47,NW,320,11.3,16.1,45,-99.99,,,-99.99,WSDL version 426,2013-11-02 14:26:00,
2013-11-02 09:31:00,48.7,27.9,29.47,NW,321,9.3,16.1,44,-99.99,,,-99.99,WSDL version 426,2013-11-02 14:31:00,
2013-11-02 09:36:00,49.1,28.1,29.47,NW,324,6.9,12.5,44,-99.99,,,-99.99,WSDL version 426,2013-11-02 14:36:00,
2013-11-02 09:41:00,49.5,27.7,29.47,NNW,330,10.4,13.9,42,-99.99,,,-99.99,WSDL version 426,2013-11-02 14:41:00,
2013-11-02 09:46:00,49.9,27.2,29.47,NW,325,8.9,15.7,41,-99.99,,,-99.99,WSDL version 426,2013-11-02 14:46:00,
2013-11-02 09:51:00,50.2,26.9,29.47,NW,321,10.7,15.7,40,-99.99,,,-99.99,WSDL version 426,2013-11-02 14:51:00,
2013-11-02 09:56:00,50.6,26.6,29.47,NW,324,9.4,13.9,39,-99.99,,,-99.99,WSDL version 426,2013-11-02 14:56:00,
2013-11-02 10:01:00,51.1,27.1,29.47,NW,315,8.8,13.0,39,-99.99,,,-99.99,WSDL version 426,2013-11-02 15:01:00,
2013-11-02 10:06:00,51.5,27.0,29.47,NW,312,9.8,13.4,38,-99.99,,,-99.99,WSDL version 426,2013-11-02 15:06:00,
2013-11-02 10:11:00,51.8,26.7,29.47,NW,318,9.0,13.4,38,-99.99,,,-99.99,WSDL version 426,2013-11-02 15:11:00,
2013-11-02 10:16:00,52.2,26.7,29.47,NW,315,8.1,13.2,37,-99.99,,,-99.99,WSDL version 426,2013-11-02 15:16:00,
2013-11-02 10:21:00,52.6,27.0,29.47,NW,320,13.0,15.4,36,-99.99,,,-99.99,WSDL version 426,2013-11-02 15:21:00,
2013-11-02 10:26:00,53.0,26.9,29.47,NW,309,9.7,15.4,36,-99.99,,,-99.99,WSDL version 426,2013-11-02 15:26:00,
2013-11-02 10:31:00,53.2,27.0,29.47,NW,309,9.8,18.6,36,-99.99,,,-99.99,WSDL version 426,2013-11-02 15:31:00,
2013-11-02 10:36:00,53.7,27.2,29.47,NW,318,13.1,18.6,35,-99.99,,,-99.99,WSDL version 426,2013-11-02 15:36:00,
2013-11-02 10:41:00,54.0,26.9,29.47,NW,315,9.7,22.4,35,-99.99,,,-99.99,WSDL version 426,2013-11-02 15:41:00,
2013-11-02 10:46:00,54.4,27.3,29.47,NW,312,10.3,22.4,35,-99.99,,,-99.99,WSDL version 426,2013-11-02 15:46:00,
2013-11-02 10:51:00,54.7,27.2,29.47,NW,318,11.7,17.7,34,-99.99,,,-99.99,WSDL version 426,2013-11-02 15:51:00,
2013-11-02 10:56:00,55.0,26.4,29.47,NW,319,12.5,17.7,33,-99.99,,,-99.99,WSDL version 426,2013-11-02 15:56:00,
2013-11-02 11:01:00,55.2,26.0,29.50,NNW,328,13.5,19.9,32,-99.99,,,-99.99,WSDL version 426,2013-11-02 16:01:00,
2013-11-02 11:06:00,55.3,25.4,29.50,NNW,335,11.7,23.7,32,-99.99,,,-99.99,WSDL version 426,2013-11-02 16:06:00,
2013-11-02 11:11:00,55.8,25.9,29.50,North,350,11.3,23.7,32,-99.99,,,-99.99,WSDL version 426,2013-11-02 16:11:00,
2013-11-02 11:16:00,56.0,25.8,29.50,NNW,340,8.8,17.7,32,-99.99,,,-99.99,WSDL version 426,2013-11-02 16:16:00,
2013-11-02 11:21:00,56.5,26.8,29.50,NW,326,9.2,17.7,31,-99.99,,,-99.99,WSDL version 426,2013-11-02 16:21:00,
2013-11-02 11:26:00,56.7,25.1,29.50,NW,321,13.8,19.2,29,-99.99,,,-99.99,WSDL version 426,2013-11-02 16:26:00,
2013-11-02 11:31:00,56.8,24.1,29.50,NW,323,14.6,22.4,28,-99.99,,,-99.99,WSDL version 426,2013-11-02 16:31:00,
2013-11-02 11:36:00,57.0,23.5,29.50,NNW,333,13.1,22.4,27,-99.99,,,-99.99,WSDL version 426,2013-11-02 16:36:00,
2013-11-02 11:41:00,57.2,23.6,29.50,NW,323,11.7,20.8,27,-99.99,,,-99.99,WSDL version 426,2013-11-02 16:41:00,
2013-11-02 11:46:00,57.5,23.8,29.50,NW,310,12.9,17.9,27,-99.99,,,-99.99,WSDL version 426,2013-11-02 16:46:00,
2013-11-02 11:51:00,57.7,23.5,29.50,NW,325,12.6,19.2,26,-99.99,,,-99.99,WSDL version 426,2013-11-02 16:51:00,
2013-11-02 11:56:00,57.9,23.7,29.50,NW,307,13.3,19.7,26,-99.99,,,-99.99,WSDL version 426,2013-11-02 16:56:00,
2013-11-02 12:01:00,58.0,23.3,29.50,NW,321,11.8,19.9,26,-99.99,,,-99.99,WSDL version 426,2013-11-02 17:01:00,
2013-11-02 12:06:00,58.3,23.6,29.50,NW,315,10.0,19.9,26,-99.99,,,-99.99,WSDL version 426,2013-11-02 17:06:00,
2013-11-02 12:12:00,58.8,24.0,29.50,NW,318,11.8,17.0,26,-99.99,,,-99.99,WSDL version 426,2013-11-02 17:12:00,
2013-11-02 12:17:00,59.0,23.6,29.50,North,350,12.6,17.9,25,-99.99,,,-99.99,WSDL version 426,2013-11-02 17:17:00,
2013-11-02 12:22:00,59.4,23.6,29.50,North,355,11.0,17.9,25,-99.99,,,-99.99,WSDL version 426,2013-11-02 17:22:00,
2013-11-02 12:27:00,59.7,23.9,29.50,NW,320,13.8,16.6,25,-99.99,,,-99.99,WSDL version 426,2013-11-02 17:27:00,
2013-11-02 12:32:00,59.4,23.6,29.47,NW,323,10.9,15.4,25,-99.99,,,-99.99,WSDL version 426,2013-11-02 17:32:00,
2013-11-02 12:37:00,59.3,23.5,29.47,NW,326,11.0,15.4,25,-99.99,,,-99.99,WSDL version 426,2013-11-02 17:37:00,
2013-11-02 12:42:00,59.4,23.6,29.47,WNW,300,12.8,17.0,25,-99.99,,,-99.99,WSDL version 426,2013-11-02 17:42:00,
2013-11-02 12:47:00,59.5,23.7,29.47,NNW,343,11.4,17.9,25,-99.99,,,-99.99,WSDL version 426,2013-11-02 17:47:00,
2013-11-02 12:52:00,60.0,24.1,29.47,NNW,341,11.1,17.9,25,-99.99,,,-99.99,WSDL version 426,2013-11-02 17:52:00,
2013-11-02 12:57:00,60.4,24.4,29.47,NNW,333,10.6,17.4,25,-99.99,,,-99.99,WSDL version 426,2013-11-02 17:57:00,
2013-11-02 13:02:00,60.4,24.4,29.50,NW,323,11.9,17.2,25,-99.99,,,-99.99,WSDL version 426,2013-11-02 18:02:00,
2013-11-02 13:07:00,60.4,24.1,29.50,NW,312,10.5,17.2,24,-99.99,,,-99.99,WSDL version 426,2013-11-02 18:07:00,
2013-11-02 13:12:00,60.4,23.6,29.50,NW,318,11.6,17.0,24,-99.99,,,-99.99,WSDL version 426,2013-11-02 18:12:00,
2013-11-02 13:17:00,60.4,23.5,29.47,NW,323,13.2,17.0,24,-99.99,,,-99.99,WSDL version 426,2013-11-02 18:17:00,
2013-11-02 13:22:00,60.4,23.4,29.47,WNW,301,10.8,16.3,24,-99.99,,,-99.99,WSDL version 426,2013-11-02 18:22:00,
2013-11-02 13:27:00,60.7,24.2,29.47,NW,323,8.1,15.2,24,-99.99,,,-99.99,WSDL version 426,2013-11-02 18:27:00,
2013-11-02 13:32:00,61.1,24.0,29.47,NW,318,11.2,17.2,24,-99.99,,,-99.99,WSDL version 426,2013-11-02 18:32:00,
2013-11-02 13:37:00,61.2,24.1,29.47,NW,311,8.9,17.2,24,-99.99,,,-99.99,WSDL version 426,2013-11-02 18:37:00,
2013-11-02 13:42:00,61.3,24.2,29.47,NNW,338,13.8,15.4,24,-99.99,,,-99.99,WSDL version 426,2013-11-02 18:42:00,
2013-11-02 13:47:00,61.9,24.7,29.47,North,354,9.2,17.7,24,-99.99,,,-99.99,WSDL version 426,2013-11-02 18:47:00,
2013-11-02 13:52:00,62.6,25.0,29.47,NNW,344,10.5,17.7,23,-99.99,,,-99.99,WSDL version 426,2013-11-02 18:52:00,
2013-11-02 13:57:00,62.5,22.8,29.47,NW,311,11.9,16.3,21,-99.99,,,-99.99,WSDL version 426,2013-11-02 18:57:00,
2013-11-02 14:02:00,61.9,24.1,29.44,NW,311,10.8,17.7,24,-99.99,,,-99.99,WSDL version 426,2013-11-02 19:02:00,
2013-11-02 14:07:00,61.9,22.6,29.44,NW,315,13.8,17.9,21,-99.99,,,-99.99,WSDL version 426,2013-11-02 19:07:00,
2013-11-02 14:12:00,62.2,21.8,29.44,NW,323,10.6,17.9,21,-99.99,,,-99.99,WSDL version 426,2013-11-02 19:12:00,
2013-11-02 14:17:00,62.5,22.0,29.44,NW,323,11.6,16.1,21,-99.99,,,-99.99,WSDL version 426,2013-11-02 19:17:00,
2013-11-02 14:22:00,62.5,22.1,29.44,NW,321,10.3,17.0,21,-99.99,,,-99.99,WSDL version 426,2013-11-02 19:22:00,
2013-11-02 14:27:00,62.8,22.3,29.44,NNW,334,9.5,17.0,21,-99.99,,,-99.99,WSDL version 426,2013-11-02 19:27:00,
2013-11-02 14:32:00,63.3,22.7,29.44,WNW,299,8.7,15.2,21,-99.99,,,-99.99,WSDL version 426,2013-11-02 19:32:00,
2013-11-02 14:37:00,63.7,21.9,29.44,NNW,335,12.1,16.8,18,-99.99,,,-99.99,WSDL version 426,2013-11-02 19:37:00,
2013-11-02 14:42:00,64.0,19.7,29.44,NNW,331,8.6,16.8,18,-99.99,,,-99.99,WSDL version 426,2013-11-02 19:42:00,
2013-11-02 14:47:00,64.2,19.8,29.44,NNW,340,10.0,14.8,18,-99.99,,,-99.99,WSDL version 426,2013-11-02 19:47:00,
2013-11-02 14:52:00,64.6,20.1,29.44,NNW,345,8.0,14.8,18,-99.99,,,-99.99,WSDL version 426,2013-11-02 19:52:00,
2013-11-02 14:57:00,64.9,19.7,29.44,NW,315,9.2,11.2,17,-99.99,,,-99.99,WSDL version 426,2013-11-02 19:57:00,
2013-11-02 15:02:00,64.7,17.7,29.44,WNW,301,12.0,18.6,15,-99.99,,,-99.99,WSDL version 426,2013-11-02 20:02:00,
2013-11-02 15:07:00,64.9,17.5,29.44,NW,315,6.2,18.6,18,-99.99,,,-99.99,WSDL version 426,2013-11-02 20:07:00,
2013-11-02 15:12:00,65.5,17.4,29.44,NW,309,10.4,15.4,15,-99.99,,,-99.99,WSDL version 426,2013-11-02 20:12:00,
2013-11-02 15:17:00,65.7,16.8,29.44,NNW,330,7.5,15.4,15,-99.99,,,-99.99,WSDL version 426,2013-11-02 20:17:00,
2013-11-02 15:22:00,66.2,17.2,29.44,NNW,338,8.9,13.0,15,-99.99,,,-99.99,WSDL version 426,2013-11-02 20:22:00,
2013-11-02 15:27:00,66.1,17.2,29.44,NW,310,10.2,13.0,15,-99.99,,,-99.99,WSDL version 426,2013-11-02 20:27:00,
2013-11-02 15:32:00,66.2,17.2,29.41,NW,308,9.3,13.0,15,-99.99,,,-99.99,WSDL version 426,2013-11-02 20:32:00,
2013-11-02 15:37:00,66.9,17.8,29.41,NNW,333,8.7,12.5,15,-99.99,,,-99.99,WSDL version 426,2013-11-02 20:37:00,
2013-11-02 15:43:00,67.5,17.4,29.41,NNW,340,9.0,12.3,14,-99.99,,,-99.99,WSDL version 426,2013-11-02 20:43:00,
2013-11-02 15:48:00,67.6,13.2,29.44,NW,325,6.6,12.1,12,-99.99,,,-99.99,WSDL version 426,2013-11-02 20:48:00,
2013-11-02 15:53:00,68.1,13.6,29.44,NNW,335,8.3,13.2,12,-99.99,,,-99.99,WSDL version 426,2013-11-02 20:53:00,
2013-11-02 15:58:00,68.4,14.7,29.44,NNW,329,8.7,13.2,12,-99.99,,,-99.99,WSDL version 426,2013-11-02 20:58:00,
2013-11-02 16:03:00,68.9,14.2,29.41,NW,318,6.9,13.2,12,-99.99,,,-99.99,WSDL version 426,2013-11-02 21:03:00,
2013-11-02 16:08:00,69.1,14.3,29.41,NNW,340,8.1,10.3,12,-99.99,,,-99.99,WSDL version 426,2013-11-02 21:08:00,
2013-11-02 16:13:00,68.8,14.2,29.41,NNW,333,6.8,11.9,12,-99.99,,,-99.99,WSDL version 426,2013-11-02 21:13:00,
2013-11-02 16:18:00,69.3,14.5,29.41,NNW,334,6.0,12.1,12,0.00,,,0.00,WSDL version 426,2013-11-02 21:18:00,
2013-11-02 16:23:00,70.0,15.1,29.41,North,352,7.2,12.1,12,-99.99,,,-99.99,WSDL version 426,2013-11-02 21:23:00,
2013-11-02 16:28:00,70.5,15.5,29.41,North,354,6.2,10.7,12,-99.99,,,-99.99,WSDL version 426,2013-11-02 21:28:00,
2013-11-02 16:33:00,69.9,15.0,29.44,NNW,332,9.3,12.3,12,-99.99,,,-99.99,WSDL version 426,2013-11-02 21:33:00,
2013-11-02 16:38:00,69.5,14.7,29.44,NW,326,6.4,12.3,12,-99.99,,,-99.99,WSDL version 426,2013-11-02 21:38:00,
2013-11-02 16:43:00,70.3,15.3,29.44,NNW,338,6.9,9.6,12,-99.99,,,-99.99,WSDL version 426,2013-11-02 21:43:00,
2013-11-02 16:48:00,70.9,15.8,29.41,North,352,6.5,8.7,12,-99.99,,,-99.99,WSDL version 426,2013-11-02 21:48:00,
2013-11-02 16:53:00,72.1,14.7,29.41,NNE,13,6.3,8.1,11,-99.99,,,-99.99,WSDL version 426,2013-11-02 21:53:00,
2013-11-02 16:58:00,72.9,15.4,29.41,North,8,5.2,8.1,11,-99.99,,,-99.99,WSDL version 426,2013-11-02 21:58:00,
2013-11-02 17:03:00,72.6,15.1,29.41,NNW,340,8.1,10.5,11,-99.99,,,-99.99,WSDL version 426,2013-11-02 22:03:00,
2013-11-02 17:08:00,71.8,14.5,29.41,North,8,6.7,10.5,11,-99.99,,,-99.99,WSDL version 426,2013-11-02 22:08:00,
2013-11-02 17:13:00,71.5,15.3,29.41,North,3,5.9,9.4,12,-99.99,,,-99.99,WSDL version 426,2013-11-02 22:13:00,
2013-11-02 17:18:00,71.6,14.8,29.44,North,360,6.0,8.5,11,-99.99,,,-99.99,WSDL version 426,2013-11-02 22:18:00,
2013-11-02 17:23:00,72.1,14.7,29.44,North,8,4.6,7.8,11,-99.99,,,-99.99,WSDL version 426,2013-11-02 22:23:00,
2013-11-02 17:28:00,73.0,15.4,29.44,North,357,4.2,7.8,11,-99.99,,,-99.99,WSDL version 426,2013-11-02 22:28:00,
2013-11-02 17:33:00,73.9,16.1,29.41,North,360,3.4,7.6,11,-99.99,,,-99.99,WSDL version 426,2013-11-02 22:33:00,
2013-11-02 17:38:00,72.6,13.6,29.41,North,357,4.1,7.8,11,-99.99,,,-99.99,WSDL version 426,2013-11-02 22:38:00,
2013-11-02 17:43:00,72.3,14.9,29.41,North,3,4.1,7.8,11,-99.99,,,-99.99,WSDL version 426,2013-11-02 22:43:00,
2013-11-02 17:48:00,72.4,14.9,29.41,North,354,3.6,8.5,11,-99.99,,,-99.99,WSDL version 426,2013-11-02 22:48:00,
2013-11-02 17:53:00,72.1,14.8,29.41,NNW,343,3.7,8.5,11,-99.99,,,-99.99,WSDL version 426,2013-11-02 22:53:00,
2013-11-02 17:58:00,71.5,15.0,29.41,NNE,26,3.1,6.3,12,-99.99,,,-99.99,WSDL version 426,2013-11-02 22:58:00,
2013-11-02 18:03:00,69.4,14.6,29.41,North,10,3.5,6.5,12,-99.99,,,-99.99,WSDL version 426,2013-11-02 23:03:00,
2013-11-02 18:08:00,67.2,12.9,29.41,North,11,2.1,6.5,12,-99.99,,,-99.99,WSDL version 426,2013-11-02 23:08:00,
2013-11-02 18:13:00,65.5,13.4,29.41,North,356,2.1,4.3,13,-99.99,,,-99.99,WSDL version 426,2013-11-02 23:13:00,
2013-11-02 18:18:00,64.3,12.4,29.44,NNE,23,1.2,2.9,13,-99.99,,,-99.99,WSDL version 426,2013-11-02 23:18:00,
2013-11-02 18:23:00,63.1,11.4,29.44,North,11,0.0,2.5,13,-99.99,,,-99.99,WSDL version 426,2013-11-02 23:23:00,
2013-11-02 18:28:00,61.9,12.2,29.44,NNW,338,1.9,2.7,14,-99.99,,,-99.99,WSDL version 426,2013-11-02 23:28:00,
2013-11-02 18:33:00,60.8,11.3,29.41,NNW,338,1.2,2.7,14,-99.99,,,-99.99,WSDL version 426,2013-11-02 23:33:00,
2013-11-02 18:38:00,59.8,10.5,29.41,NNW,338,1.3,2.5,14,-99.99,,,-99.99,WSDL version 426,2013-11-02 23:38:00,
2013-11-02 18:43:00,59.1,13.5,29.41,NNW,338,0.0,2.0,17,-99.99,,,-99.99,WSDL version 426,2013-11-02 23:43:00,
2013-11-02 18:48:00,58.4,16.0,29.41,NNW,338,0.0,1.3,22,-99.99,,,-99.99,WSDL version 426,2013-11-02 23:48:00,
2013-11-02 18:53:00,57.4,21.1,29.41,NNW,338,0.0,0.0,25,0.00,,,0.00,WSDL version 426,2013-11-02 23:53:00,
2013-11-02 18:58:00,56.6,21.2,29.41,NNW,338,0.0,0.9,25,-99.99,,,-99.99,WSDL version 426,2013-11-02 23:58:00,
2013-11-02 19:03:00,56.0,21.2,29.44,NNW,338,0.0,1.1,26,-99.99,,,-99.99,WSDL version 426,2013-11-03 00:03:00,
2013-11-02 19:08:00,55.1,21.3,29.44,NE,45,1.1,1.3,27,-99.99,,,-99.99,WSDL version 426,2013-11-03 00:08:00,
2013-11-02 19:13:00,53.8,21.3,29.44,NE,45,0.0,1.3,28,-99.99,,,-99.99,WSDL version 426,2013-11-03 00:13:00,
2013-11-02 19:18:00,53.0,21.5,29.44,NE,45,0.0,0.9,29,-99.99,,,-99.99,WSDL version 426,2013-11-03 00:18:00,
2013-11-02 19:23:00,52.5,21.7,29.44,NE,45,0.0,0.0,30,-99.99,,,-99.99,WSDL version 426,2013-11-03 00:23:00,
2013-11-02 19:28:00,51.8,21.9,29.44,NE,45,0.0,0.0,31,-99.99,,,-99.99,WSDL version 426,2013-11-03 00:28:00,
2013-11-02 19:33:00,51.2,23.6,29.44,NE,45,0.0,0.0,35,-99.99,,,-99.99,WSDL version 426,2013-11-03 00:33:00,
2013-11-02 19:38:00,50.7,23.4,29.44,NE,45,0.0,0.0,34,-99.99,,,-99.99,WSDL version 426,2013-11-03 00:38:00,
2013-11-02 19:43:00,50.3,22.3,29.44,NE,51,0.0,0.0,32,-99.99,,,-99.99,WSDL version 426,2013-11-03 00:43:00,
2013-11-02 19:48:00,50.0,21.8,29.44,ENE,68,0.0,0.0,34,-99.99,,,-99.99,WSDL version 426,2013-11-03 00:48:00,
2013-11-02 19:53:00,49.3,23.2,29.44,ENE,68,0.0,0.0,37,-99.99,,,-99.99,WSDL version 426,2013-11-03 00:53:00,
2013-11-02 19:58:00,48.9,23.8,29.44,ENE,68,0.0,0.0,37,-99.99,,,-99.99,WSDL version 426,2013-11-03 00:58:00,
2013-11-02 20:03:00,48.6,23.5,29.44,ENE,68,0.0,0.0,37,-99.99,,,-99.99,WSDL version 426,2013-11-03 01:03:00,
2013-11-02 20:08:00,48.2,23.4,29.44,ENE,68,0.0,0.0,38,-99.99,,,-99.99,WSDL version 426,2013-11-03 01:08:00,
2013-11-02 20:13:00,47.9,23.8,29.44,ENE,68,0.0,0.0,39,-99.99,,,-99.99,WSDL version 426,2013-11-03 01:13:00,
2013-11-02 20:18:00,47.6,23.9,29.44,ENE,68,0.0,0.0,39,-99.99,,,-99.99,WSDL version 426,2013-11-03 01:18:00,
2013-11-02 20:23:00,47.1,23.4,29.44,ENE,68,0.0,0.0,39,-99.99,,,-99.99,WSDL version 426,2013-11-03 01:23:00,
2013-11-02 20:28:00,46.3,23.1,29.44,ENE,68,0.0,0.0,40,-99.99,,,-99.99,WSDL version 426,2013-11-03 01:28:00,
2013-11-02 20:33:00,45.9,23.3,29.44,ENE,68,0.0,0.0,41,-99.99,,,-99.99,WSDL version 426,2013-11-03 01:33:00,
2013-11-02 20:38:00,45.8,23.5,29.44,ENE,68,0.0,0.0,41,-99.99,,,-99.99,WSDL version 426,2013-11-03 01:38:00,
2013-11-02 20:43:00,45.6,23.0,29.44,ENE,68,0.0,0.0,40,-99.99,,,-99.99,WSDL version 426,2013-11-03 01:43:00,
2013-11-02 20:48:00,45.4,22.5,29.44,ENE,68,0.0,0.0,40,-99.99,,,-99.99,WSDL version 426,2013-11-03 01:48:00,
2013-11-02 20:53:00,45.2,23.1,29.44,ENE,68,0.0,0.0,42,-99.99,,,-99.99,WSDL version 426,2013-11-03 01:53:00,
2013-11-02 20:58:00,44.8,23.2,29.44,ENE,68,0.0,0.0,43,-99.99,,,-99.99,WSDL version 426,2013-11-03 01:58:00,
2013-11-02 21:03:00,44.3,23.6,29.41,ENE,68,0.0,0.0,43,-99.99,,,-99.99,WSDL version 426,2013-11-03 02:03:00,
2013-11-02 21:08:00,44.0,23.7,29.41,ENE,68,0.0,0.0,44,-99.99,,,-99.99,WSDL version 426,2013-11-03 02:08:00,
2013-11-02 21:13:00,43.7,23.3,29.41,ENE,68,0.0,0.0,44,-99.99,,,-99.99,WSDL version 426,2013-11-03 02:13:00,
2013-11-02 21:18:00,43.6,23.6,29.41,ENE,68,0.0,0.0,46,-99.99,,,-99.99,WSDL version 426,2013-11-03 02:18:00,
2013-11-02 21:23:00,43.5,24.8,29.41,ENE,68,0.0,0.0,48,-99.99,,,-99.99,WSDL version 426,2013-11-03 02:23:00,
2013-11-02 21:28:00,43.4,24.7,29.41,ENE,68,0.0,0.0,47,-99.99,,,-99.99,WSDL version 426,2013-11-03 02:28:00,
2013-11-02 21:33:00,43.1,24.5,29.41,SSE,158,0.0,0.0,48,-99.99,,,-99.99,WSDL version 426,2013-11-03 02:33:00,
2013-11-02 21:38:00,42.4,24.0,29.41,SSE,158,0.0,0.0,48,0.00,,,0.00,WSDL version 426,2013-11-03 02:38:00,
2013-11-02 21:43:00,42.2,24.3,29.41,SSE,158,0.0,0.0,48,-99.99,,,-99.99,WSDL version 426,2013-11-03 02:43:00,
2013-11-02 21:48:00,42.1,23.8,29.44,ESE,113,0.0,0.0,48,-99.99,,,-99.99,WSDL version 426,2013-11-03 02:48:00,
2013-11-02 21:53:00,42.1,24.1,29.44,ESE,113,0.0,0.0,49,-99.99,,,-99.99,WSDL version 426,2013-11-03 02:53:00,
2013-11-02 21:58:00,42.1,24.8,29.44,ESE,113,0.0,0.0,50,-99.99,,,-99.99,WSDL version 426,2013-11-03 02:58:00,
2013-11-02 22:03:00,42.1,24.8,29.41,ESE,113,0.0,0.0,50,-99.99,,,-99.99,WSDL version 426,2013-11-03 03:03:00,
2013-11-02 22:08:00,41.9,24.6,29.41,ESE,113,0.0,0.0,50,-99.99,,,-99.99,WSDL version 426,2013-11-03 03:08:00,
2013-11-02 22:13:00,41.8,24.5,29.41,ESE,113,0.0,0.0,50,-99.99,,,-99.99,WSDL version 426,2013-11-03 03:13:00,
2013-11-02 22:18:00,41.7,24.6,29.44,ESE,113,0.0,0.0,50,-99.99,,,-99.99,WSDL version 426,2013-11-03 03:18:00,
2013-11-02 22:23:00,41.5,24.5,29.44,ESE,113,0.0,0.0,51,-99.99,,,-99.99,WSDL version 426,2013-11-03 03:23:00,
2013-11-02 22:28:00,41.3,24.7,29.44,ESE,113,0.0,0.0,51,0.00,,,0.00,WSDL version 426,2013-11-03 03:28:00,
2013-11-02 22:33:00,41.0,24.6,29.41,SE,131,0.0,0.0,53,0.00,,,0.00,WSDL version 426,2013-11-03 03:33:00,
2013-11-02 22:38:00,40.6,24.8,29.41,SSW,203,0.0,0.0,54,0.00,,,0.00,WSDL version 426,2013-11-03 03:38:00,
2013-11-02 22:43:00,40.5,24.5,29.41,South,180,0.0,0.0,52,-99.99,,,-99.99,WSDL version 426,2013-11-03 03:43:00,
2013-11-02 22:48:00,40.5,24.6,29.44,South,180,0.0,0.0,53,0.00,,,0.00,WSDL version 426,2013-11-03 03:48:00,
2013-11-02 22:53:00,40.5,25.0,29.44,South,180,0.0,0.0,54,0.00,,,0.00,WSDL version 426,2013-11-03 03:53:00,
2013-11-02 22:58:00,40.5,25.1,29.44,South,180,0.0,0.0,54,0.00,,,0.00,WSDL version 426,2013-11-03 03:58:00,
2013-11-02 23:01:00,40.4,24.9,29.44,SE,135,0.0,0.0,54,-99.99,,,-99.99,WSDL version 426,2013-11-03 04:01:00,
2013-11-02 23:02:00,40.4,24.9,29.44,SE,135,0.0,0.0,54,-99.99,,,-99.99,WSDL version 426,2013-11-03 04:02:00,
2013-11-02 23:03:00,40.3,24.9,29.44,SE,135,0.0,0.0,54,-99.99,,,-99.99,WSDL version 426,2013-11-03 04:03:00,
2013-11-02 23:06:00,40.2,24.9,29.44,SE,126,0.0,0.0,54,-99.99,,,-99.99,WSDL version 426,2013-11-03 04:06:00,
2013-11-02 23:07:00,40.2,24.9,29.44,ESE,113,0.0,0.0,54,-99.99,,,-99.99,WSDL version 426,2013-11-03 04:07:00,
2013-11-02 23:11:00,40.1,25.1,29.44,ESE,113,0.0,0.0,54,-99.99,,,-99.99,WSDL version 426,2013-11-03 04:11:00,
2013-11-02 23:16:00,40.1,25.1,29.44,ESE,113,0.0,0.0,55,-99.99,,,-99.99,WSDL version 426,2013-11-03 04:16:00,
2013-11-02 23:21:00,40.1,25.2,29.44,ESE,113,0.0,0.0,55,0.00,,,0.00,WSDL version 426,2013-11-03 04:21:00,
2013-11-02 23:26:00,39.9,25.0,29.44,ESE,113,0.0,0.0,55,0.00,,,0.00,WSDL version 426,2013-11-03 04:26:00,
2013-11-02 23:31:00,39.9,25.2,29.44,ESE,113,0.0,0.0,55,-99.99,,,-99.99,WSDL version 426,2013-11-03 04:31:00,
2013-11-02 23:36:00,39.8,25.0,29.44,ESE,113,0.0,0.0,55,-99.99,,,-99.99,WSDL version 426,2013-11-03 04:36:00,
2013-11-02 23:41:00,39.7,25.5,29.44,ESE,113,0.0,0.0,57,-99.99,,,-99.99,WSDL version 426,2013-11-03 04:41:00,
2013-11-02 23:46:00,39.7,25.6,29.44,ESE,113,0.0,0.0,57,-99.99,,,-99.99,WSDL version 426,2013-11-03 04:46:00,
2013-11-02 23:51:00,39.7,25.8,29.44,ESE,113,0.0,0.0,57,0.00,,,0.00,WSDL version 426,2013-11-03 04:51:00,
2013-11-02 23:56:00,39.7,25.7,29.44,ESE,113,0.0,0.0,57,0.00,,,0.00,WSDL version 426,2013-11-03 04:56:00,